[Iaude] MPEC F75: 2024 FM2 [a=1.87,e=0.37,i=4.9,H=22.5]
    mpec at cfa.harvard.edu 
    mpec at cfa.harvard.edu
       
    Fri Mar 22 09:58:41 EDT 2024
    
    
  
M.P.E.C. 2024-F75                                Issued 2024 March 22, 13:57 UT
     The Minor Planet Electronic Circulars contain information on unusual
         minor planets, routine data on comets and natural satellites,
         and occasional editorial announcements.  They are published
    on behalf of Division F of the International Astronomical Union by the
          Minor Planet Center, Smithsonian Astrophysical Observatory,
                          Cambridge, MA 02138, U.S.A.
			  
             Prepared using the Tamkin Foundation Computer Network
                              MPC at CFA.HARVARD.EDU
            URL https://www.minorplanetcenter.net/    ISSN 1523-6714
                                    2024 FM2                                    
Observations:
     K24F02M* C2024 03 18.57308414 53 46.842+04 49 19.08         21.12wXEF075F51
     K24F02M  C2024 03 18.58458114 53 48.655+04 49 14.68         22.04wXEF075F51
     K24F02M  C2024 03 18.59605414 53 50.500+04 49 10.35         22.05wXEF075F51
     K24F02M KC2024 03 19.50958 14 56 25.80 +04 43 13.0          21.6 RVEF075691
     K24F02M KC2024 03 19.51423 14 56 26.60 +04 43 10.8          21.4 RVEF075691
     K24F02M KC2024 03 19.51889 14 56 27.36 +04 43 08.9          21.4 RVEF075691
     K24F02M 1C2024 03 19.55454414 56 34.392+04 43 01.13         22.25GVEF075T12
     K24F02M 1C2024 03 19.55645414 56 34.696+04 43 00.44         22.25GVEF075T12
     K24F02M KC2024 03 21.47613 15 02 00.22 +04 29 44.3                VEF075691
     K24F02M KC2024 03 21.48284 15 02 01.35 +04 29 41.6          21.0 RVEF075691
     K24F02M KC2024 03 21.48955 15 02 02.39 +04 29 38.2          20.5 RVEF075691
     K24F02M  C2024 03 22.48116415 04 49.981+04 22 21.11         21.0 GVEF075H01
     K24F02M  C2024 03 22.48518315 04 50.619+04 22 19.34         21.1 GVEF075H01
     K24F02M KC2024 03 22.49615415 04 52.446+04 22 15.96         20.50GVEF075I52
     K24F02M  C2024 03 22.49897415 04 52.801+04 22 13.17         20.9 GVEF075H01
     K24F02M KC2024 03 22.50095815 04 53.224+04 22 12.86         21.02GVEF075I52
     K24F02M  C2024 03 22.50443315 04 53.661+04 22 10.60         20.9 GVEF075H01
     K24F02M KC2024 03 22.50574715 04 53.965+04 22 10.85         20.96GVEF075I52
Observer details:
691 Steward Observatory, Kitt Peak-Spacewatch.  Observer M. T. Read.
    Measurers M. T. Read, M. T. Read.  0.9-m f/3 reflector + CCD.
F51 Pan-STARRS 1, Haleakala.  Observers J. Herman, T. Lowe, P. Minguez, A.
    Schultz, I. Smith.  Measurers K. Chambers, T. de Boer, J. Fairlamb, H.
    Gao, M. Huber, C.-C. Lin, E. Magnier, Y. Ramanjooloo, R. Wainscoat, R.
    Weryk, J. Herman, T. Lowe, P. Minguez, A. Schultz, I. Smith.  1.8-m
    Ritchey-Chretien + CCD.
H01 Magdalena Ridge Observatory, Socorro.  Observers W. H. Ryan, E. V. Ryan.
    Measurers W. H. Ryan, W. H. Ryan, E. V. Ryan.  2.4-m f/8.9 Ritchey-
    Chretien + CCD.
I52 Steward Observatory, Mt. Lemmon Station.  Observer D. Rankin.  Measurers
    T. Beuden, V. F. Carvajal, D. Fay, J. B. Fazekas, D. C. Fuls, A. R. Gibbs,
    A. D. Grauer, H. Groeller, J. K. Hogan, R. A. Kowalski, S. M. Larson, G.
    J. Leonard, D. Rankin, R. L. Seaman, F. C. Shelly, K. W. Wierzchos, D.
    Rankin.  1.0-m prime focus + CCD.
T12 University of Hawaii 88-inch telescope, Maunakea.  Observer J. Fairlamb.
    Measurers R. Weryk, J. Fairlamb, Y. Ramanjooloo, R. Wainscoat, J.
    Fairlamb.  2.24-m f/10.1 reflector + CCD.
Orbital elements:
2024 FM2                                                 Earth MOID = 0.1846 AU
Epoch 2024 Mar. 31.0 TT = JDT 2460400.5                 MPC                     
M 354.02543              (2000.0)            P               Q                  
n   0.38631190     Peri.  133.61817     -0.85439188     +0.51285049             
a   1.8671419      Node    77.40126     -0.49802412     -0.76224410             
e   0.3683047      Incl.    4.91763     -0.14827845     -0.39492824             
P   2.55           H   22.53          G   0.15           U   9                  
Residuals in seconds of arc
240318 F51  0.0   0.1+    240319 T12  0.0   0.1-    240322 H01  0.0   0.1-
240318 F51  0.2-  0.0     240319 T12  0.1+  0.1-    240322 I52  0.0   0.7+
240318 F51  0.2+  0.0     240321 691  0.6-  0.3+    240322 H01  0.0   0.0
240319 691  1.1-  0.4+    240321 691  0.4+  0.5+    240322 I52  0.2+  0.2-
240319 691  0.3-  0.1+    240321 691  0.1+  0.0     240322 H01  0.1-  0.1-
240319 691  0.1-  0.1+    240322 H01  0.1-  0.1-    240322 I52  0.0   0.1-
Ephemeris:
2024 FM2                 a,e,i = 1.87, 0.37, 5                   q = 1.1795
Date    TT    R. A. (2000) Decl.     Delta      r    Elong.  Phase     V
2024 02 21    13 38 31.4 +06 37 52   0.4070  1.2860   129.4    36.5    22.6
...
2024 03 07    14 20 40.5 +05 46 39   0.3270  1.2377   132.7    36.1    22.0
...
2024 03 15    14 43 35.0 +05 10 11   0.2934  1.2171   134.1    35.9    21.8
...
2024 03 21    15 00 39.9 +04 33 22   0.2722  1.2044   135.1    35.7    21.6
2024 03 22    15 03 29.2 +04 26 12   0.2690  1.2025   135.3    35.7    21.5
2024 03 23    15 06 17.9 +04 18 42   0.2658  1.2007   135.5    35.6    21.5
...
2024 03 29    15 22 52.8 +03 26 18   0.2488  1.1913   136.5    35.2    21.3
...
2024 04 06    15 43 44.4 +01 53 47   0.2306  1.1830   138.4    34.2    21.1
...
2024 04 21    16 16 19.4 -02 23 07   0.2096  1.1807   143.9    30.1    20.8
A. U. Tomatic                (C) Copyright 2024 MPC           M.P.E.C. 2024-F75
    
    
More information about the Iaude
mailing list